This is the latest recevied weather packets stored in our database for station/object KC5TIL-3. If no packets are shown the sender has not sent any weather packets the latest 10 day(s).
| Time | Temp. | Humidity | Pressure | Rain* | Wind** | Luminosity | Snow |
|---|---|---|---|---|---|---|---|
| 1777365369 | 26.11° C | 69% | 1007.8 hPa | 0 mm | 5.36 m/s, 210° | - | - |
| 1777365066 | 26.11° C | 69% | 1007.8 hPa | 0 mm | 3.13 m/s, 203° | - | - |
| 1777364768 | 26.11° C | 69% | 1007.8 hPa | 0 mm | 4.02 m/s, 202° | - | - |
| 1777364468 | 26.11° C | 69% | 1007.8 hPa | 0 mm | 4.47 m/s, 186° | - | - |
| 1777363871 | 26.11° C | 70% | 1007.8 hPa | 0 mm | 2.68 m/s, 228° | - | - |
| 1777362973 | 26.11° C | 71% | 1007.8 hPa | 0 mm | 2.68 m/s, 238° | - | - |
| 1777362071 | 26.11° C | 71% | 1007.8 hPa | 0 mm | 3.58 m/s, 172° | - | - |
| 1777361771 | 26.11° C | 71% | 1007.8 hPa | 0 mm | 1.79 m/s, 144° | - | - |
| 1777361467 | 26.11° C | 70% | 1007.8 hPa | 0 mm | 3.13 m/s, 212° | - | - |
| 1777361169 | 26.11° C | 70% | 1007.8 hPa | 0 mm | 3.13 m/s, 191° | - | - |
| 1777360867 | 26.11° C | 69% | 1007.8 hPa | 0 mm | 2.24 m/s, 205° | - | - |
| 1777360569 | 26.11° C | 69% | 1007.8 hPa | 0 mm | 3.13 m/s, 229° | - | - |
| 1777360271 | 26.11° C | 69% | 1007.8 hPa | 0 mm | 2.68 m/s, 117° | - | - |
| 1777359971 | 26.11° C | 69% | 1007.8 hPa | 0 mm | 3.13 m/s, 191° | - | - |
| 1777359672 | 26.11° C | 69% | 1007.8 hPa | 0 mm | 2.68 m/s, 188° | - | - |
| 1777359374 | 26.11° C | 69% | 1007.8 hPa | 0 mm | 2.68 m/s, 106° | - | - |
| 1777358774 | 26.11° C | 69% | 1007.8 hPa | 0 mm | 1.79 m/s, 163° | - | - |
| 1777357877 | 26.67° C | 68% | 1007.8 hPa | 0 mm | 1.79 m/s, 210° | - | - |
| 1777356979 | 26.67° C | 67% | 1007.8 hPa | 0 mm | 2.68 m/s, 123° | - | - |
| 1777356681 | 26.67° C | 67% | 1007.8 hPa | 0 mm | 3.13 m/s, 127° | - | - |
| 1777356381 | 26.67° C | 66% | 1007.8 hPa | 0 mm | 2.24 m/s, 209° | - | - |
| 1777356082 | 26.67° C | 66% | 1007.8 hPa | 0 mm | 3.13 m/s, 135° | - | - |
| 1777355184 | 26.67° C | 65% | 1007.8 hPa | 0 mm | 2.68 m/s, 193° | - | - |
| 1777354886 | 26.67° C | 65% | 1007.8 hPa | 0 mm | 3.58 m/s, 112° | - | - |
| 1777354287 | 26.67° C | 65% | 1007.8 hPa | 0 mm | 3.13 m/s, 171° | - | - |
* Rain latest hour (hover to see other rain measurements)
** Current wind speed in m/s (hover to see current wind gust speed)